Wind from 005 at 2 knots gusting 6

Air temperature 18.3° C
Dewpoint 13.0° C

Last reported at 2014-Apr-23 14:41 UTC.
Time now 2014-Apr-23 15:07 UTC

Location: N 43°58' E 012°44'.
View on Google Maps.

See reports from other nearby stations

Tides Stations Pressure Air Temp Water Temp Dewpoint Dewpoint depression Visibility Wind Speed Wind Dir Waves Ship positions

  
sailing weather and tide predictions

CW6538 Cattolica IT weather

date/time (UTC)wind fromknots sea level pressurealtimeterstation pressurevisibilityair tempwater tempwave heightnotes
2014-Apr-23 14:41 005 2 gusting 6 18.3
2014-Apr-23 14:31 355 5 gusting 8 18.3
2014-Apr-23 14:26 345 5 gusting 7 18.9
2014-Apr-23 14:21 355 4 gusting 7 18.9
2014-Apr-23 14:16 355 3 gusting 8 18.9
2014-Apr-23 14:11 005 5 gusting 8 18.3
2014-Apr-23 14:06 005 5 gusting 8 18.9
2014-Apr-23 14:01 355 5 gusting 7 18.9
2014-Apr-23 13:56 336 2 gusting 7 18.9
2014-Apr-23 13:51 009 5 gusting 7 18.9
2014-Apr-23 13:46 349 2 gusting 6 18.9
2014-Apr-23 13:41 342 5 gusting 8 18.3
2014-Apr-23 13:36 355 6 gusting 8 18.3
2014-Apr-23 13:31 355 4 gusting 8 18.3
2014-Apr-23 13:26 338 5 gusting 8 18.3
2014-Apr-23 13:16 346 6 gusting 8 17.8
2014-Apr-23 13:11 342 4 gusting 7 18.3
2014-Apr-23 13:06 355 5 gusting 7 18.3
2014-Apr-23 13:01 349 4 gusting 8 18.3
2014-Apr-23 12:56 010 6 gusting 8 18.3
2014-Apr-23 12:51 302 5 gusting 8 18.3
2014-Apr-23 12:46 026 5 gusting 8 18.3
2014-Apr-23 12:36 024 6 gusting 9 17.8
2014-Apr-23 12:31 005 6 gusting 11 18.3
2014-Apr-23 12:26 023 6 gusting 10 17.8
2014-Apr-23 12:21 033 7 gusting 10 17.8
2014-Apr-23 12:16 014 5 gusting 10 17.8
2014-Apr-23 12:11 022 6 gusting 12 17.8
2014-Apr-23 12:06 360 7 gusting 12 17.8
2014-Apr-23 12:01 011 7 gusting 11 17.2
2014-Apr-23 11:56 005 6 gusting 10 17.8
2014-Apr-23 11:51 005 6 gusting 12 17.8
2014-Apr-23 11:46 024 6 gusting 12 17.8
2014-Apr-23 11:41 340 8 gusting 11 17.8
2014-Apr-23 11:36 329 6 gusting 10 17.8
2014-Apr-23 11:21 005 7 gusting 9 17.8
2014-Apr-23 11:11 355 4 gusting 9 17.2
2014-Apr-23 11:01 013 5 gusting 7 16.7
2014-Apr-23 10:51 360 3 gusting 7 16.7
2014-Apr-23 10:46 016 4 gusting 7 16.1
2014-Apr-23 10:36 346 4 gusting 7 15.6
2014-Apr-23 10:31 343 2 gusting 8 15.6
2014-Apr-23 10:26 346 6 gusting 8 15.6
2014-Apr-23 10:21 330 6 gusting 8 15.6
2014-Apr-23 10:16 349 4 gusting 8 15.6
2014-Apr-23 10:11 331 6 gusting 7 15.6
2014-Apr-23 10:06 360 5 gusting 7 15.6
2014-Apr-23 10:01 348 1 gusting 7 15.6
2014-Apr-23 09:56 344 5 gusting 7 15.6
2014-Apr-23 09:51 300 4 gusting 7 15.6
2014-Apr-23 09:46 324 3 gusting 7 15.6
2014-Apr-23 09:41 296 3 gusting 7 15.6
2014-Apr-23 09:36 297 3 gusting 6 15.6
2014-Apr-23 09:31 313 2 gusting 6 15.6
2014-Apr-23 09:26 330 1 gusting 6 15.0
2014-Apr-23 09:21 321 3 gusting 6 15.0
2014-Apr-23 09:16 334 4 gusting 6 15.0
2014-Apr-23 09:06 329 2 gusting 7 15.0
2014-Apr-23 09:01 339 4 gusting 7 15.0
2014-Apr-23 08:56 298 4 gusting 6 15.0
2014-Apr-23 08:51 318 3 gusting 6 15.0
2014-Apr-23 08:46 336 4 gusting 7 15.0
2014-Apr-23 08:41 315 5 gusting 7 15.0
2014-Apr-23 08:36 340 4 gusting 6 15.0
2014-Apr-23 08:31 005 4 gusting 6 15.0
2014-Apr-23 08:21 329 4 gusting 6 15.0
2014-Apr-23 08:16 338 4 gusting 8 15.0
2014-Apr-23 08:11 317 4 gusting 8 15.0
2014-Apr-23 08:06 321 5 gusting 8 15.0
2014-Apr-23 08:01 333 4 gusting 7 15.0
2014-Apr-23 07:56 332 5 gusting 8 15.0
2014-Apr-23 07:51 348 6 gusting 8 14.4
2014-Apr-23 07:46 015 4 gusting 8 14.4
2014-Apr-23 07:41 355 5 gusting 8 14.4
2014-Apr-23 07:36 324 3 gusting 7 14.4
2014-Apr-23 07:31 360 5 gusting 7 14.4
2014-Apr-23 07:26 360 3 gusting 8 14.4
2014-Apr-23 07:21 355 4 gusting 8 14.4
2014-Apr-23 07:16 355 4 gusting 6 14.4
2014-Apr-23 07:11 349 3 gusting 6 14.4
2014-Apr-23 07:01 333 3 gusting 6 13.9
2014-Apr-23 06:56 313 2 gusting 6 13.9
2014-Apr-23 06:51 338 3 gusting 6 13.9
2014-Apr-23 06:46 325 2 gusting 6 13.9
2014-Apr-23 06:41 265 13.9
2014-Apr-23 06:36 265 0 gusting 3 13.9
2014-Apr-23 06:26 265 13.9
2014-Apr-23 06:21 265 13.9
2014-Apr-23 06:11 265 13.9
2014-Apr-23 06:06 265 13.3
2014-Apr-23 06:01 265 0 gusting 1 13.3
2014-Apr-23 05:56 265 13.3
2014-Apr-23 05:51 265 0 gusting 3 13.3
2014-Apr-23 05:46 265 0 gusting 2 13.3
2014-Apr-23 05:41 265 13.3
2014-Apr-23 05:36 265 1 gusting 3 13.3
2014-Apr-23 05:31 265 13.3
2014-Apr-23 05:26 265 13.3
2014-Apr-23 05:16 265 13.3
2014-Apr-23 05:11 265 0 gusting 3 13.3
2014-Apr-23 05:06 265 13.3
2014-Apr-23 05:01 265 13.3
2014-Apr-23 04:56 265 0 gusting 3 13.3
2014-Apr-23 04:51 265 0 gusting 2 13.3
2014-Apr-23 04:46 265 0 gusting 2 12.8
2014-Apr-23 04:36 265 12.8
2014-Apr-23 04:31 265 12.8
2014-Apr-23 04:26 265 0 gusting 1 12.8
2014-Apr-23 04:21 265 12.8
2014-Apr-23 04:16 265 12.8
2014-Apr-23 04:11 265 12.8
2014-Apr-23 04:01 265 0 gusting 5 12.8
2014-Apr-23 03:51 267 0 gusting 6 12.8
2014-Apr-23 03:46 259 0 gusting 6 12.8
2014-Apr-23 03:41 275 3 gusting 5 13.3
2014-Apr-23 03:31 277 12.8
2014-Apr-23 03:26 281 0 gusting 3 12.8
2014-Apr-23 03:21 240 12.8
2014-Apr-23 03:16 240 1 gusting 3 12.8
2014-Apr-23 03:11 241 12.8
2014-Apr-23 03:06 241 0 gusting 3 12.8
2014-Apr-23 03:01 240 0 gusting 3 12.8
2014-Apr-23 02:56 240 0 gusting 3 12.8
2014-Apr-23 02:51 241 12.8
2014-Apr-23 02:46 241 12.8
2014-Apr-23 02:41 240 1 gusting 3 12.8
2014-Apr-23 02:36 209 12.2
2014-Apr-23 02:31 209 12.2
2014-Apr-23 02:26 209 12.2
2014-Apr-23 02:21 209 12.2
2014-Apr-23 02:16 209 12.2
2014-Apr-23 02:11 209 12.2
2014-Apr-23 02:06 209 12.2
2014-Apr-23 02:01 209 12.2
2014-Apr-23 01:56 209 12.2
2014-Apr-23 01:51 209 12.2
2014-Apr-23 01:46 209 12.2
2014-Apr-23 01:41 209 12.2
2014-Apr-23 01:31 209 12.2
2014-Apr-23 01:26 209 12.2
2014-Apr-23 01:16 209 12.2
2014-Apr-23 01:11 209 12.2
2014-Apr-23 01:06 209 12.2
2014-Apr-23 01:01 209 12.2
2014-Apr-23 00:56 209 12.2
2014-Apr-23 00:51 209 12.2
2014-Apr-23 00:46 209 12.2
2014-Apr-23 00:36 209 12.2
2014-Apr-23 00:26 209 3 gusting 5 12.2
2014-Apr-23 00:21 231 1 gusting 4 12.2
2014-Apr-23 00:11 232 12.2
2014-Apr-23 00:06 232 12.2
2014-Apr-23 00:01 232 12.2
2014-Apr-22 23:56 232 0 gusting 3 12.2
2014-Apr-22 23:51 232 0 gusting 2 12.2
2014-Apr-22 23:46 232 0 gusting 3 12.2
2014-Apr-22 23:41 232 12.2
2014-Apr-22 23:31 232 2 gusting 4 12.2
2014-Apr-22 23:26 181 1 gusting 2 12.2
2014-Apr-22 23:21 181 12.2
2014-Apr-22 23:11 182 2 gusting 4 12.2
2014-Apr-22 23:06 181 3 gusting 4 12.2
2014-Apr-22 23:01 182 12.2
2014-Apr-22 22:55 181 12.2
2014-Apr-22 22:46 181 0 gusting 3 12.2
2014-Apr-22 22:41 182 1 gusting 2 12.2
2014-Apr-22 22:36 182 0 gusting 1 12.2
2014-Apr-22 22:31 182 12.2
2014-Apr-22 22:26 182 12.2
2014-Apr-22 22:21 182 12.2
2014-Apr-22 22:16 182 12.2
2014-Apr-22 22:06 182 1 gusting 4 12.2
2014-Apr-22 22:01 182 0 gusting 3 12.8
2014-Apr-22 21:51 181 3 gusting 5 12.2
2014-Apr-22 21:41 183 3 gusting 6 12.8
2014-Apr-22 21:31 192 2 gusting 4 12.8
2014-Apr-22 21:26 152 1 gusting 3 12.8
2014-Apr-22 21:21 152 1 gusting 4 12.8
2014-Apr-22 21:11 138 1 gusting 4 13.3
2014-Apr-22 21:06 148 2 gusting 4 13.3
2014-Apr-22 21:02 138 1 gusting 3 13.3
2014-Apr-22 20:56 122 1 gusting 3 13.3
2014-Apr-22 20:46 121 13.9
2014-Apr-22 20:41 121 13.9
2014-Apr-22 20:36 121 13.9
2014-Apr-22 20:31 121 13.9
2014-Apr-22 20:26 121 13.9
2014-Apr-22 20:16 121 1 gusting 1 13.9
2014-Apr-22 20:11 113 13.9
2014-Apr-22 20:06 113 13.9
2014-Apr-22 19:56 113 13.9
2014-Apr-22 19:51 113 13.9
2014-Apr-22 19:46 113 13.9
2014-Apr-22 19:41 113 13.9
2014-Apr-22 19:36 113 13.9
2014-Apr-22 19:31 113 13.9
2014-Apr-22 19:26 113 13.9
2014-Apr-22 19:21 113 14.4
2014-Apr-22 19:11 113 14.4
2014-Apr-22 19:06 113 0 gusting 4 14.4
2014-Apr-22 18:56 137 2 gusting 4 14.4
2014-Apr-22 18:46 132 0 gusting 3 15.0
2014-Apr-22 18:41 132 1 gusting 3 15.0
2014-Apr-22 18:36 071 0 gusting 1 15.0
2014-Apr-22 18:31 071 15.0
2014-Apr-22 18:26 071 15.0
2014-Apr-22 18:21 071 15.0
2014-Apr-22 18:16 071 15.0
2014-Apr-22 18:11 071 15.0
2014-Apr-22 18:06 071 15.0
2014-Apr-22 17:56 071 15.0
2014-Apr-22 17:51 071 0 gusting 4 15.6
2014-Apr-22 17:46 071 2 gusting 5 15.6
2014-Apr-22 17:41 054 2 gusting 6 15.6
2014-Apr-22 17:36 054 3 gusting 6 15.6
2014-Apr-22 17:31 074 3 gusting 6 15.6
2014-Apr-22 17:26 055 2 gusting 6 15.6
2014-Apr-22 17:21 056 2 gusting 5 15.6
2014-Apr-22 17:16 206 15.6
2014-Apr-22 17:11 206 16.1
2014-Apr-22 17:06 227 16.1
2014-Apr-22 17:01 228 16.1
2014-Apr-22 16:56 227 16.1
2014-Apr-22 16:51 228 0 gusting 3 16.1
2014-Apr-22 16:46 228 15.6
2014-Apr-22 16:41 228 15.6
2014-Apr-22 16:31 228 15.6
2014-Apr-22 16:21 146 15.6
2014-Apr-22 16:16 146 15.6
2014-Apr-22 16:11 146 15.6
2014-Apr-22 16:06 023 0 gusting 3 15.6
2014-Apr-22 16:01 024 15.6
2014-Apr-22 15:56 108 0 gusting 6 15.6
2014-Apr-22 15:51 109 3 gusting 7 15.6
2014-Apr-22 15:41 121 4 gusting 7 15.6
2014-Apr-22 15:36 140 3 gusting 7 15.6
2014-Apr-22 15:31 134 3 gusting 6 15.6
2014-Apr-22 15:26 122 3 gusting 5 15.6
2014-Apr-22 15:16 066 4 gusting 6 15.6
2014-Apr-22 15:11 071 2 gusting 6 15.6
2014-Apr-22 15:06 071 4 gusting 7 16.1
2014-Apr-22 15:01 069 4 gusting 8 16.1
2014-Apr-22 14:56 069 5 gusting 8 16.1
2014-Apr-22 14:51 076 6 gusting 9 16.1
2014-Apr-22 14:46 042 4 gusting 8 16.1
2014-Apr-22 14:41 048 4 gusting 8 16.1
2014-Apr-22 14:36 028 4 gusting 7 16.1
2014-Apr-22 14:31 083 4 gusting 9 16.1
2014-Apr-22 14:26 082 5 gusting 9 16.1
2014-Apr-22 14:21 048 5 gusting 7 16.1
2014-Apr-22 14:16 043 6 gusting 7 16.7
2014-Apr-22 14:11 043 4 gusting 6 16.7
2014-Apr-22 14:01 040 5 gusting 7 16.1
2014-Apr-22 13:51 050 4 gusting 10 16.1
2014-Apr-22 13:46 063 6 gusting 10 16.7
2014-Apr-22 13:41 027 6 gusting 9 16.1
2014-Apr-22 13:36 059 6 gusting 8 16.7
2014-Apr-22 13:31 057 5 gusting 7 16.7
2014-Apr-22 13:26 028 4 gusting 8 16.7
2014-Apr-22 13:21 075 5 gusting 8 16.7
2014-Apr-22 13:16 062 4 gusting 7 16.7
2014-Apr-22 13:01 069 4 gusting 9 16.7
2014-Apr-22 12:51 066 6 gusting 8 17.2
2014-Apr-22 12:46 045 6 gusting 8 17.2
2014-Apr-22 12:36 067 6 gusting 8 17.8
2014-Apr-22 12:26 055 1 gusting 7 16.7
2014-Apr-22 12:21 099 2 gusting 7 16.7
2014-Apr-22 12:16 036 2 gusting 7 16.1
2014-Apr-22 12:11 044 3 gusting 8 16.1
2014-Apr-22 12:06 051 4 gusting 8 16.1
2014-Apr-22 12:01 058 6 gusting 8 16.1
2014-Apr-22 11:56 043 4 gusting 7 16.1
2014-Apr-22 11:51 051 3 gusting 8 16.1
2014-Apr-22 11:46 046 5 gusting 8 16.1
2014-Apr-22 11:41 061 5 gusting 8 16.1
2014-Apr-22 11:36 360 5 gusting 8 16.1
2014-Apr-22 11:31 057 3 gusting 6 16.1
2014-Apr-22 11:26 065 5 gusting 6 16.1
2014-Apr-22 11:21 046 5 gusting 7 16.1
2014-Apr-22 11:16 018 5 gusting 7 16.1
2014-Apr-22 11:11 061 5 gusting 9 16.1
2014-Apr-22 11:06 051 6 gusting 9 15.6
2014-Apr-22 11:01 037 4 gusting 6 15.6
2014-Apr-22 10:56 046 3 gusting 7 15.6
2014-Apr-22 10:51 005 5 gusting 8 15.6
2014-Apr-22 10:46 045 5 gusting 7 15.6
2014-Apr-22 10:41 055 4 gusting 8 15.6
2014-Apr-22 10:31 032 4 gusting 7 15.6
2014-Apr-22 10:26 074 5 gusting 9 16.1
2014-Apr-22 10:21 064 6 gusting 9 15.6
2014-Apr-22 10:16 033 4 gusting 7 15.6
2014-Apr-22 10:11 009 4 gusting 7 15.6
2014-Apr-22 10:06 041 4 gusting 6 15.6
2014-Apr-22 10:01 039 3 gusting 8 15.6
2014-Apr-22 09:56 013 6 gusting 8 15.6
2014-Apr-22 09:51 019 6 gusting 8 15.6
2014-Apr-22 09:46 019 5 gusting 8 15.6
2014-Apr-22 09:36 341 3 gusting 7 15.6
2014-Apr-22 09:31 019 4 gusting 7 15.6
2014-Apr-22 09:26 051 3 gusting 6 15.0
2014-Apr-22 09:21 030 4 gusting 6 15.0
2014-Apr-22 09:16 355 4 gusting 7 15.0
2014-Apr-22 09:11 030 4 gusting 7 14.4
2014-Apr-22 09:06 323 6 gusting 6 14.4
2014-Apr-22 09:01 330 4 gusting 8 14.4
2014-Apr-22 08:56 005 4 gusting 9 14.4
2014-Apr-22 08:46 311 2 gusting 6 15.0
2014-Apr-22 08:36 021 4 gusting 6 15.0
2014-Apr-22 08:31 011 5 gusting 6 15.6
2014-Apr-22 08:26 344 4 gusting 7 15.6
2014-Apr-22 08:21 009 6 gusting 8 15.6
2014-Apr-22 08:16 021 3 gusting 8 15.6
2014-Apr-22 08:11 005 5 gusting 8 15.6
2014-Apr-22 08:06 009 6 gusting 7 15.0
2014-Apr-22 08:01 329 5 gusting 6 15.6
2014-Apr-22 07:56 351 4 gusting 7 15.6
2014-Apr-22 07:51 040 4 gusting 7 15.0
2014-Apr-22 07:46 030 5 gusting 6 15.0
2014-Apr-22 07:41 355 3 gusting 6 15.0
2014-Apr-22 07:36 014 2 gusting 6 15.0
2014-Apr-22 07:31 304 2 gusting 6 14.4
2014-Apr-22 07:26 313 3 gusting 6 14.4
2014-Apr-22 07:21 355 1 gusting 6 15.0
2014-Apr-22 07:11 315 3 gusting 6 14.4
2014-Apr-22 07:06 360 4 gusting 6 15.0
2014-Apr-22 06:56 010 14.4
2014-Apr-22 06:51 348 3 gusting 6 14.4
2014-Apr-22 06:41 360 3 gusting 5 13.9
2014-Apr-22 06:36 331 0 gusting 4 13.3
2014-Apr-22 06:31 198 13.3
2014-Apr-22 06:26 198 13.3
2014-Apr-22 06:21 198 12.8
2014-Apr-22 06:11 198 12.2
2014-Apr-22 06:06 198 1 gusting 4 11.7
2014-Apr-22 06:01 198 11.7
2014-Apr-22 05:56 198 0 gusting 3 11.7
2014-Apr-22 05:51 198 1 gusting 3 11.7
2014-Apr-22 05:47 198 11.1
2014-Apr-22 05:41 198 11.1
2014-Apr-22 05:31 198 11.1
2014-Apr-22 05:26 198 1 gusting 4 11.1
2014-Apr-22 05:16 198 1 gusting 4 10.6
2014-Apr-22 05:11 198 2 gusting 4 10.6
2014-Apr-22 05:06 198 2 gusting 4 10.6
2014-Apr-22 05:01 198 1 gusting 4 10.6
2014-Apr-22 04:56 198 2 gusting 3 10.6
2014-Apr-22 04:46 198 1 gusting 2 10.6
2014-Apr-22 04:41 198 0 gusting 3 10.6
2014-Apr-22 04:36 198 1 gusting 2 10.6
2014-Apr-22 04:31 198 2 gusting 2 10.6
2014-Apr-22 04:26 198 10.6
2014-Apr-22 04:21 198 11.1
2014-Apr-22 04:16 198 11.1
2014-Apr-22 04:11 198 11.1
2014-Apr-22 04:06 198 11.1
2014-Apr-22 04:01 198 11.1
2014-Apr-22 03:51 198 0 gusting 1 11.1
2014-Apr-22 03:46 198 11.1
2014-Apr-22 03:41 198 11.1
2014-Apr-22 03:36 198 11.1
2014-Apr-22 03:31 198 11.1
2014-Apr-22 03:26 198 1 gusting 3 11.1
2014-Apr-22 03:21 198 11.1
2014-Apr-22 03:16 198 11.1
2014-Apr-22 03:11 198 2 gusting 4 11.1
2014-Apr-22 03:06 198 11.1
2014-Apr-22 02:56 198 11.1
2014-Apr-22 02:51 198 0 gusting 4 11.1
2014-Apr-22 02:46 198 2 gusting 4 11.1
2014-Apr-22 02:41 198 1 gusting 4 11.1
2014-Apr-22 02:36 198 11.1
2014-Apr-22 02:31 198 1 gusting 4 11.1
2014-Apr-22 02:26 198 2 gusting 4 11.7
2014-Apr-22 02:16 198 2 gusting 4 11.7
2014-Apr-22 02:06 198 2 gusting 2 11.7
2014-Apr-22 02:01 198 0 gusting 4 11.7
2014-Apr-22 01:56 198 0 gusting 3 11.7
2014-Apr-22 01:51 198 0 gusting 1 11.7
2014-Apr-22 01:46 198 11.7
2014-Apr-22 01:36 198 11.7
2014-Apr-22 01:31 198 0 gusting 3 11.7
2014-Apr-22 01:26 198 1 gusting 2 11.7
2014-Apr-22 01:16
2014-Apr-22 01:11
2014-Apr-22 01:06
2014-Apr-22 01:01
2014-Apr-22 00:56
2014-Apr-22 00:46
2014-Apr-22 00:36
2014-Apr-22 00:31 186 2 gusting 4 12.2
2014-Apr-22 00:26 186 2 gusting 4 12.2
2014-Apr-22 00:21 186 2 gusting 4 12.2
2014-Apr-22 00:16 186 1 gusting 4 12.2
2014-Apr-22 00:11 186 2 gusting 4 12.2
2014-Apr-22 00:01 187 3 gusting 4 12.2
2014-Apr-21 23:51 187 1 gusting 4 12.8
2014-Apr-21 23:46 186 2 gusting 5 12.8
2014-Apr-21 23:41 186 2 gusting 5 12.8
2014-Apr-21 23:36 184 3 gusting 5 12.8
2014-Apr-21 23:31 184 1 gusting 4 12.8
2014-Apr-21 23:26 184 1 gusting 4 12.8
2014-Apr-21 23:21 184 1 gusting 2 12.8
2014-Apr-21 23:11 184 2 gusting 4 13.3
2014-Apr-21 23:06 184 0 gusting 2 13.3
2014-Apr-21 23:01 184 1 gusting 3 13.3
2014-Apr-21 22:56 184 1 gusting 3 13.3
2014-Apr-21 22:46 184 1 gusting 2 13.3
2014-Apr-21 22:41 184 0 gusting 3 13.3
2014-Apr-21 22:36 184 13.3
2014-Apr-21 22:21 195 2 gusting 4 13.9
2014-Apr-21 22:16 195 0 gusting 4 13.9
2014-Apr-21 22:11 196 2 gusting 4 13.9
2014-Apr-21 22:06 155 0 gusting 4 13.9
2014-Apr-21 22:01 155 2 gusting 4 13.9
2014-Apr-21 21:51 155 0 gusting 3 14.4
2014-Apr-21 21:41 155 1 gusting 4 14.4
2014-Apr-21 21:36 155 2 gusting 4 14.4
2014-Apr-21 21:31 005 14.4
2014-Apr-21 21:26 005 15.0
2014-Apr-21 21:21 005 15.0
2014-Apr-21 21:11 005 15.0
2014-Apr-21 21:04 005 15.0
2014-Apr-21 20:56 005 15.0
2014-Apr-21 20:51 005 15.0
2014-Apr-21 20:46 005 15.0
2014-Apr-21 20:41 005 15.0
2014-Apr-21 20:36 005 0 gusting 3 15.0
2014-Apr-21 20:26 038 15.0
2014-Apr-21 20:21 038 15.0
2014-Apr-21 20:16 038 15.0
2014-Apr-21 20:11 038 15.0
2014-Apr-21 20:06 038 15.0
2014-Apr-21 20:01 038 15.0
2014-Apr-21 19:56 038 15.0
2014-Apr-21 19:51 038 15.0
2014-Apr-21 19:46 038 0 gusting 2 15.0
2014-Apr-21 19:41 038 1 gusting 3 15.0
2014-Apr-21 19:31 038 2 gusting 5 15.0
2014-Apr-21 19:26 039 1 gusting 5 15.0
2014-Apr-21 19:21 021 2 gusting 6 15.0
2014-Apr-21 19:16 031 4 gusting 10 15.0
2014-Apr-21 19:11 360 4 gusting 10 15.6
2014-Apr-21 19:06 355 5 gusting 8 16.1
2014-Apr-21 19:01 005 6 gusting 7 16.1
2014-Apr-21 18:56 273 4 gusting 9 16.1
2014-Apr-21 18:51 298 6 gusting 9 16.1
2014-Apr-21 18:46 284 6 gusting 10 16.1
2014-Apr-21 18:41 350 6 gusting 10 16.1
2014-Apr-21 18:36 330 6 gusting 10 16.7
2014-Apr-21 18:31 302 6 gusting 9 16.7
2014-Apr-21 18:26 261 2 gusting 9 17.2
2014-Apr-21 18:21 257 6 gusting 9 17.2
2014-Apr-21 18:16 301 17.2
2014-Apr-21 18:06 094 17.8
2014-Apr-21 18:01 094 17.8
2014-Apr-21 17:56 094 17.8
2014-Apr-21 17:51 094 17.8
2014-Apr-21 17:41 094 18.3
2014-Apr-21 17:31 094 18.3
2014-Apr-21 17:21 094 18.9
2014-Apr-21 17:16 094 18.9
2014-Apr-21 17:11 094 18.9
2014-Apr-21 17:06 094 18.9
2014-Apr-21 16:56 094 18.9
2014-Apr-21 16:41 059 0 gusting 4 18.9
2014-Apr-21 16:31 059 3 gusting 5 18.3
2014-Apr-21 16:26 059 1 gusting 4 18.3
2014-Apr-21 16:21 059 1 gusting 5 18.3
2014-Apr-21 16:16 059 3 gusting 6 18.3
2014-Apr-21 16:06 046 2 gusting 5 18.3
2014-Apr-21 16:01 051 0 gusting 5 18.3
2014-Apr-21 15:56 051 2 gusting 5 18.9
2014-Apr-21 15:51 032 3 gusting 5 18.9
2014-Apr-21 15:46 080 2 gusting 4 18.9
2014-Apr-21 15:41 102 1 gusting 6 18.9
2014-Apr-21 15:36 086 3 gusting 6 18.9
2014-Apr-21 15:31 040 2 gusting 6 18.9
2014-Apr-21 15:26 042 2 gusting 6 18.3
2014-Apr-21 15:21 051 3 gusting 6 18.3
2014-Apr-21 15:16 046 1 gusting 5 18.3
2014-Apr-21 15:11 065 0 gusting 6 18.3
2014-Apr-21 15:06 065 4 gusting 6 17.8